EW3148 Weather Reports


time (UTC)temp
F
wind
direction
speed
knots
gust
knots
rain 1hr
in
rain 24hr
in
rain mn
in
humidity
%
barometer
mb
20190323041911 64 342 0.0 7.0 0.00 0.00 0.00 60 1016.6
20190323040911 64 38 0.0 5.2 0.00 0.00 0.00 59 1016.6
20190323035911 64 9 0.0 9.6 0.00 0.00 0.00 59 1016.5
20190323034911 65 34 0.9 7.8 0.00 0.00 0.00 58 1016.6
20190323033911 65 46 0.9 10.4 0.00 0.00 0.00 58 1016.5
20190323032911 66 32 0.0 10.4 0.00 0.00 0.00 57 1016.4
20190323031914 66 5 0.0 11.3 0.00 0.00 0.00 57 1016.4
20190323030911 66 5 0.0 8.7 0.00 0.00 0.00 57 1016.1
20190323025911 66 20 8.7 8.7 0.00 0.00 0.00 56 1016.1
20190323024911 67 360 7.0 11.3 0.00 0.00 0.00 55 1015.8
20190323023911 67 344 0.9 11.3 0.00 0.00 0.00 55 1015.8
20190323022911 68 334 2.6 8.7 0.00 0.00 0.00 54 1015.7
20190323021911 68 342 0.0 10.4 0.00 0.00 0.00 55 1015.6
20190323020911 68 340 0.0 7.0 0.00 0.00 0.00 55 1015.7
20190323015911 69 343 0.0 9.6 0.00 0.00 0.00 55 1015.6
20190323014911 69 350 0.0 7.8 0.00 0.00 0.00 57 1015.5
20190323013911 69 328 0.0 7.8 0.00 0.00 0.00 59 1015.4
20190323012911 70 55 3.5 7.8 0.00 0.00 0.00 59 1015.3
20190323011911 70 348 0.0 5.2 0.00 0.00 0.00 59 1015.2
20190323010911 70 355 0.9 4.3 0.00 0.00 0.00 58 1015.3
20190323005911 70 31 0.0 3.5 0.00 0.00 0.00 56 1015.3
20190323004911 70 46 0.0 2.6 0.00 0.00 0.00 55 1015.3
20190323003911 71 16 0.0 4.3 0.00 0.00 0.00 55 1015.1
20190323002911 71 12 0.0 2.6 0.00 0.00 0.00 54 1015.0
20190323001911 71 35 0.0 7.0 0.00 0.00 0.00 53 1014.9
20190323000911 71 30 0.0 7.0 0.00 0.00 0.00 52 1014.8
20190322235911 71 12 0.0 8.7 0.00 0.00 0.00 51 1014.8
20190322234911 71 37 0.0 5.2 0.00 0.00 0.00 51 1014.8
20190322233911 72 40 0.0 3.5 0.00 0.00 0.00 51 1014.9
20190322232911 72 350 0.0 12.2 0.00 0.00 0.00 51 1014.9
20190322231912 72 34 0.9 8.7 0.00 0.00 0.00 51 1014.8
20190322230911 72 342 0.9 8.7 0.00 0.00 0.00 50 1014.8
20190322225911 73 14 0.0 10.4 0.00 0.00 0.00 50 1014.8
20190322224911 73 57 0.0 8.7 0.00 0.00 0.00 50 1014.8
20190322223911 73 37 0.0 10.4 0.00 0.00 0.00 51 1014.8
20190322222911 73 355 0.0 7.8 0.00 0.00 0.00 52 1014.8
20190322221911 73 43 0.0 7.8 0.00 0.00 0.00 52 1014.9
20190322220911 73 355 5.2 9.6 0.00 0.00 0.00 52 1015.0
20190322215911 73 350 0.0 10.4 0.00 0.00 0.00 52 1015.0
20190322214911 73 32 7.0 12.2 0.00 0.00 0.00 52 1015.2
20190322213911 74 38 0.0 10.4 0.00 0.00 0.00 53 1015.2
20190322212910 74 42 0.0 9.6 0.00 0.00 0.00 52 1015.3
20190322211911 73 32 0.0 8.7 0.00 0.00 0.00 55 1015.4
20190322210911 73 17 0.9 11.3 0.00 0.00 0.00 54 1015.6
20190322205910 74 51 0.0 8.7 0.00 0.00 0.00 53 1015.7
20190322204911 74 33 0.0 8.7 0.00 0.00 0.00 53 1015.8
20190322203911 73 25 2.6 6.1 0.00 0.00 0.00 52 1016.0
20190322202911 74 336 0.0 11.3 0.00 0.00 0.00 52 1016.1
20190322201911 74 340 0.0 9.6 0.00 0.00 0.00 52 1016.2
20190322200910 73 344 0.0 9.6 0.00 0.00 0.00 52 1016.4
20190322195910 74 327 0.9 13.9 0.00 0.00 0.00 52 1016.5
20190322194911 74 29 0.0 15.6 0.00 0.00 0.00 50 1016.5
20190322193911 75 24 0.0 13.9 0.00 0.00 0.00 50 1016.7
20190322192911 76 5 1.7 12.2 0.00 0.00 0.00 48 1017.0
20190322191910 76 334 4.3 12.2 0.00 0.00 0.00 47 1017.0
20190322190910 76 34 0.0 9.6 0.00 0.00 0.00 49 1017.3
20190322185910 75 28 0.0 8.7 0.00 0.00 0.00 50 1017.5
20190322184911 74 327 2.6 12.2 0.00 0.00 0.00 49 1017.7
20190322183911 75 17 0.0 13.0 0.00 0.00 0.00 48 1018.0
20190322182910 75 32 0.0 5.2 0.00 0.00 0.00 49 1018.2
20190322181910 75 32 0.0 10.4 0.00 0.00 0.00 49 1018.4
20190322180910 75 30 0.0 12.2 0.00 0.00 0.00 49 1018.6
20190322175910 74 9 0.0 9.6 0.00 0.00 0.00 50 1018.8
20190322174912 74 355 0.0 9.6 0.00 0.00 0.00 50 1019.0
20190322173911 74 331 0.0 11.3 0.00 0.00 0.00 51 1019.1
20190322172910 74 342 0.0 2.6 0.00 0.00 0.00 50 1019.3
20190322171910 73 20 6.1 7.8 0.00 0.00 0.00 52 1019.4
20190322170910 73 28 0.0 7.8 0.00 0.00 0.00 53 1019.6
20190322165910 72 52 0.0 9.6 0.00 0.00 0.00 53 1019.7
20190322164911 72 34 0.0 8.7 0.00 0.00 0.00 55 1019.7
20190322163910 72 51 0.0 8.7 0.00 0.00 0.00 54 1019.9
20190322162911 71 48 0.0 8.7 0.00 0.00 0.00 57 1019.9
20190322161911 70 65 3.5 7.8 0.00 0.00 0.00 57 1020.1
20190322160910 70 47 0.0 13.0 0.00 0.00 0.00 57 1020.0
20190322155911 70 64 0.0 2.6 0.00 0.00 0.00 59 1020.0
20190322154910 69 17 0.0 8.7 0.00 0.00 0.00 60 1020.2
20190322153910 68 92 0.0 7.8 0.00 0.00 0.00 63 1020.1
20190322152910 67 38 0.0 0.0 0.00 0.00 0.00 68 1020.0
20190322151910 66 92 0.0 4.3 0.00 0.00 0.00 68 1020.1
20190322150910 65 39 0.0 3.5 0.00 0.00 0.00 71 1020.1
20190322145911 65 57 0.0 2.6 0.00 0.00 0.00 74 1020.1
20190322144910 64 44 0.0 4.3 0.00 0.00 0.00 75 1020.0
20190322143910 64 32 0.0 5.2 0.00 0.00 0.00 76 1020.1
20190322142910 63 86 0.0 2.6 0.00 0.00 0.00 78 1020.1
20190322141910 62 115 0.0 0.9 0.00 0.00 0.00 79 1020.1
20190322140910 61 78 0.0 4.3 0.00 0.00 0.00 80 1020.0
20190322135910 60 35 0.0 0.9 0.00 0.00 0.00 80 1019.9
20190322134910 60 52 0.0 0.0 0.00 0.00 0.00 81 1019.9
20190322133910 59 74 0.0 0.0 0.00 0.00 0.00 82 1019.9
20190322132910 58 61 0.0 0.0 0.00 0.00 0.00 84 1019.9
20190322131910 57 52 0.0 0.0 0.00 0.00 0.00 85 1019.7
20190322130910 55 82 0.0 0.0 0.00 0.00 0.00 85 1019.6
20190322125910 55 43 0.0 0.0 0.00 0.00 0.00 85 1019.3
20190322124910 54 66 0.0 0.0 0.00 0.00 0.00 85 1019.2
20190322123910 54 65 0.0 0.0 0.00 0.00 0.00 85 1019.1
20190322122910 54 65 0.0 0.0 0.00 0.00 0.00 84 1019.0
20190322121910 55 65 0.0 0.0 0.00 0.00 0.00 83 1018.9
20190322120910 55 65 0.0 0.0 0.00 0.00 0.00 83 1018.8
20190322115910 55 57 0.0 0.0 0.00 0.00 0.00 82 1018.8
20190322114910 55 55 0.0 0.0 0.00 0.00 0.00 81 1018.7
20190322113910 56 55 0.0 0.0 0.00 0.00 0.00 81 1018.7
20190322112910 56 56 0.0 0.0 0.00 0.00 0.00 81 1018.8
20190322111910 55 42 0.0 0.0 0.00 0.00 0.00 82 1018.7
20190322110912 55 53 0.0 3.5 0.00 0.00 0.00 82 1018.6
20190322105910 55 48 0.0 0.0 0.00 0.00 0.00 81 1018.6
20190322104910 56 48 0.0 0.0 0.00 0.00 0.00 80 1018.6
20190322103910 56 48 0.0 0.0 0.00 0.00 0.00 79 1018.6
20190322102910 56 80 0.0 0.0 0.00 0.00 0.00 79 1018.6
20190322101910 56 101 0.0 1.7 0.00 0.00 0.00 79 1018.5
20190322100910 57 61 0.9 0.9 0.00 0.00 0.00 78 1018.5
20190322095910 57 47 0.0 0.0 0.00 0.00 0.00 78 1018.5
20190322094910 57 63 0.0 1.7 0.00 0.00 0.00 78 1018.6
20190322093910 57 61 0.0 2.6 0.00 0.00 0.00 77 1018.6
20190322092910 57 58 0.0 0.9 0.00 0.00 0.00 77 1018.6
20190322091910 57 74 0.0 3.5 0.00 0.00 0.00 76 1018.5
20190322090910 57 63 0.0 3.5 0.00 0.00 0.00 75 1018.7
20190322085911 57 28 0.0 2.6 0.00 0.00 0.00 73 1018.9
20190322084910 58 41 0.0 0.9 0.00 0.00 0.00 72 1019.0
20190322083910 58 51 0.0 0.0 0.00 0.00 0.00 72 1019.1
20190322082910 58 62 0.0 0.0 0.00 0.00 0.00 71 1019.2
20190322081910 58 58 0.0 2.6 0.00 0.00 0.00 70 1019.3
20190322080910 57 45 0.0 0.0 0.00 0.00 0.00 67 1019.5
20190322075910 57 43 0.0 0.0 0.00 0.00 0.00 63 1019.6
20190322074910 57 32 0.0 0.0 0.00 0.00 0.00 59 1019.7
20190322073910 57 43 0.0 0.0 0.00 0.00 0.00 55 1019.8
20190322072910 57 42 0.0 0.0 0.00 0.00 0.00 52 1019.8
20190322071910 57 37 0.0 1.7 0.00 0.00 0.00 50 1019.8
20190322070910 57 46 0.0 2.6 0.00 0.00 0.00 48 1019.8
20190322065910 57 39 0.0 0.0 0.00 0.00 0.00 47 1019.8
20190322064910 57 36 0.0 0.0 0.00 0.00 0.00 46 1019.8
20190322063910 57 28 0.0 0.0 0.00 0.00 0.00 45 1019.7
20190322062910 58 30 0.0 0.0 0.00 0.00 0.00 45 1019.7
20190322061911 58 31 0.0 0.0 0.00 0.00 0.00 45 1019.7
20190322060910 58 29 0.0 0.0 0.00 0.00 0.00 44 1019.6
20190322055910 58 29 0.0 0.0 0.00 0.00 0.00 44 1019.7
20190322054909 58 29 0.0 0.0 0.00 0.00 0.00 43 1019.6
20190322053910 59 29 0.0 0.0 0.00 0.00 0.00 43 1019.6
20190322052910 59 28 0.0 0.0 0.00 0.00 0.00 43 1019.5
20190322051910 59 28 0.0 0.0 0.00 0.00 0.00 42 1019.5
20190322050909 59 23 0.0 0.0 0.00 0.00 0.00 41 1019.6
20190322045909 59 24 0.0 0.0 0.00 0.00 0.00 41 1019.7
20190322044910 59 24 0.0 0.0 0.00 0.00 0.00 41 1019.8
20190322043910 60 11 0.0 0.0 0.00 0.00 0.00 40 1019.8
20190322042912 60 11 0.0 0.0 0.00 0.00 0.00 40 1019.8